Regional Weather Roundup
Issued by NWS

Home | Current Version | Previous Version | Text Only | Print | Product List | Glossary Off
Versions: 1 2 3 4 5 6 7 8 9 10 11 12 13 14 15 16 17 18 19 20 21 22 23 24 25 26 27 28 29 30 31 32 33 34 35 36 37 38 39 40 41 42 43 44 45 46 47 48 49 50

000
ASUS43 KMPX 251410
RWRMN
WEATHER ROUNDUP FOR MINNESOTA
NATIONAL WEATHER SERVICE TWIN CITIES/CHANHASSEN MN
900 AM CDT SAT APR 25 2015


NOTE: "FAIR" INDICATES FEW OR NO CLOUDS BELOW 12,000 FEET WITH NO
SIGNIFICANT WEATHER AND/OR OBSTRUCTIONS TO VISIBILITY. N/A MEANS
CURRENT SKY AND/OR WEATHER CONDITIONS ARE NOT AVAILABLE.

MNZ060>063-068>070-251500-
   Twin Cities Metro

CITY           SKY/WX    TMP DP  RH WIND       PRES   REMARKS
TWIN CITIES    CLOUDY    44  37  76 E9        29.85R
ST PAUL        CLOUDY    45  36  70 E8G17     29.87R
CRYSTAL        CLOUDY    45  36  70 E7        29.85R
BLAINE         PTSUNNY   46  37  71 E12G18    29.85S
LAKEVILLE      CLOUDY    41  37  87 E10       29.83R
EDEN PRAIRIE   CLOUDY    44  36  73 E12       29.83R
SOUTH ST PAUL  CLOUDY    45  36  71 E7        29.85S
LAKE ELMO      CLOUDY    45  34  65 E13       29.87R
$$
MNZ001>005-007-008-013>017-022>024-027-028-251500-
   Northwest Minnesota

CITY           SKY/WX    TMP DP  RH WIND       PRES   REMARKS
BEMIDJI        PTSUNNY   41  28  58 E10       29.90S
HALLOCK        CLOUDY    45  30  57 E10       29.92R
ROSEAU         CLOUDY    43  25  49 E9        29.95R
WARROAD        CLOUDY    39  28  65 E7        29.96S
THIEF RVR FALL CLOUDY    43  28  56 E13       29.90S
CROOKSTON      PTSUNNY   45  32  61 SE10      29.89S
FOSSTON        CLOUDY    43  30  61 E9        29.89R
DETROIT LAKES  PTSUNNY   43  34  70 SE14      29.85F
MOORHEAD       CLOUDY    45  36  70 E10       29.86S
PARK RAPIDS    CLOUDY    43  30  60 E12       29.87R
MAHNOMEN       CLOUDY    45  33  64 SE12      29.86S
$$
MNZ006-009>011-018-025>026-251500-
   North Central Minnesota

CITY           SKY/WX    TMP DP  RH WIND       PRES   REMARKS
BAUDETTE         N/A     42  22  44 E13       29.96R
FLAG ISLAND    CLOUDY    39  23  52 SE6       29.97S
INTL FALLS     CLOUDY    40  17  39 E12       29.97S
WASKISH        CLOUDY    41  25  52 CALM      29.94S
BIG FORK       PTSUNNY   39  19  45 E6        29.95R
LONGVILLE      CLOUDY    39  28  65 E5        29.90S
GRAND RAPIDS   CLOUDY    39  23  52 E6        29.93R
CRANE LAKE     CLOUDY    37  10  32 CALM      30.00F
ORR            CLOUDY    39  14  35 E5        29.94S
COOK           CLOUDY    37  18  44 E6        29.96F
WALKER         CLOUDY    39  28  64 E8        29.90R
$$
MNZ012-019>021-037-251500-
   Northeast Minnesota

CITY           SKY/WX    TMP DP  RH WIND       PRES   REMARKS
DULUTH         CLOUDY    36  23  59 E15       29.95R
ELY            PTSUNNY   37   7  28 E8        29.98S
HIBBING        CLOUDY    39  21  48 E12       29.94S
EVELETH        CLOUDY    36  19  51 E7        29.96S
DULUTH HARBOR  CLOUDY    36  30  80 NE29      29.99R
TWO HARBORS    CLOUDY    37  27  65 NE14G20   29.96S
SILVER BAY     CLOUDY    36  25  64 NE12G17   29.98F
GRAND MARAIS     N/A     37  21  52 E9        30.04S
G MARAIS ARPRT CLOUDY    34   3  27 NE8       30.00S WCI  27
$$
MNZ029>031-032-039>041-046>048-054>057-064-251500-
   West Central Minnesota

CITY           SKY/WX    TMP DP  RH WIND       PRES   REMARKS
FERGUS FALLS   CLOUDY    43  34  70 SE10      29.86R
WHEATON        PTSUNNY   39  39 100 E14       29.84R FOG
MORRIS         PTSUNNY   43  41  93 E12       29.82R FOG
ALEXANDRIA     CLOUDY    40  36  86 E12       29.84R
ELBOW LAKE     CLOUDY    41  38  89 E10       29.84R
WADENA         CLOUDY    39  32  75 E8G18     29.85R
GLENWOOD       PTSUNNY   41  37  87 E16       29.83R
APPLETON       PTSUNNY   45  41  87 E12       29.81R
BENSON         CLOUDY    43  39  87 SE8       29.82R
ORTONVILLE     CLOUDY    43  39  87 E12       29.80R FOG
MADISON        PTSUNNY   45  41  87 E12       29.79S FOG
WILLMAR        FAIR      45  43  93 E14G20    29.83R
$$
MNZ033>034-036-042>043-049>051-058-059-251500-
   Central Minnesota

CITY           SKY/WX    TMP DP  RH WIND       PRES   REMARKS
ST CLOUD       CLOUDY    43  36  76 E9G20     29.86R
SAUK CENTRE    CLOUDY    40  36  86 E10       29.84R
PAYNESVILLE    CLOUDY    40  37  91 NE10      29.84R
AITKIN         CLOUDY    39  30  70 E9G16     29.89S
PINE RIVER     CLOUDY    39  32  75 E10       29.92R
BRAINERD       CLOUDY    40  32  73 E8G16     29.89R
STAPLES        CLOUDY    43  32  65 E7G17     29.86S
LONG PRAIRIE   CLOUDY    37  34  87 NE12      29.85R
LITTLE FALLS   PTSUNNY   43  34  70 E7        29.86S
LITCHFIELD     CLOUDY    45  41  87 E15       29.83R
BUFFALO        CLOUDY    43  37  78 NE13      29.85R
MAPLE LAKE     CLOUDY    44  38  81 E14G20    29.85S
$$
MNZ037-044-045-052-053-251500-
   East Central Minnesota

CITY           SKY/WX    TMP DP  RH WIND       PRES   REMARKS
PRINCETON      CLOUDY    46  37  71 E9        29.87R
MORA           MOSUNNY   45  34  65 E8G16     29.90S
CAMBRIDGE      PTSUNNY   46  36  66 E9        29.86R
RUSH CITY      PTSUNNY   46  34  62 E10G17    29.89S
MOOSE LAKE     CLOUDY    36  30  80 NE7       29.91S
HINCKLEY       FAIR      43  34  70 E8        29.91S
CLOQUET        CLOUDY    36  27  69 E14G21    29.95R
MCGREGOR       CLOUDY    37  32  81 E10       29.92S
$$
MNZ071>073-080-081-089-090-097-098-251500-
   Southwest Minnesota

CITY           SKY/WX    TMP DP  RH WIND       PRES   REMARKS
MONTEVIDEO     CLOUDY    45  43  93 SE13      29.81R
GRANITE FALLS  CLOUDY    44  38  80 E13G18    29.81S
CANBY          CLOUDY    43  40  89 E15       29.79R FOG
MARSHALL       CLOUDY    43  36  75 SE15G22   29.78R
REDWOOD FALLS  CLOUDY    44  37  76 E12G21    29.80R
OLIVIA         CLOUDY    41  36  81 E14G22    29.80R
PIPESTONE      CLOUDY    43  39  87 E16       29.73R
WINDOM         CLOUDY    43  37  81 E15G22    29.76R
WORTHINGTON    CLOUDY    43  36  75 E18       29.74S
JACKSON        CLOUDY    43  36  75 E16       29.75R
TRACY          CLOUDY    45  39  81 E15       29.77S
SLAYTON        CLOUDY    41  39  92 E15       29.76R FOG
$$
MNZ065>067-074>077-082>085-091>093-251500-
   South Central Minnesota

CITY           SKY/WX    TMP DP  RH WIND       PRES   REMARKS
MANKATO        CLOUDY    45  36  70 E13       29.79S
NEW ULM        CLOUDY    43  37  81 E15       29.80R
ST JAMES       CLOUDY    45  37  76 E13       29.79R
FAIRMONT       CLOUDY    43  10  26 E14       29.75S
GLENCOE        CLOUDY    44  40  84 E12       29.82R
FARIBAULT      CLOUDY    43  37  81 E12G17    29.81R
OWATONNA       PTSUNNY   43  37  81 E16G22    29.79R
WASECA         CLOUDY    43  37  81 E17G23    29.79R
ALBERT LEA     CLOUDY    43  37  81 E15       29.76R
$$
MNZ078>079-086>088-094>096-251500-
   Southeast Minnesota

CITY           SKY/WX    TMP DP  RH WIND       PRES   REMARKS
ROCHESTER      CLOUDY    42  37  82 E15       29.79S
RED WING       PTSUNNY   45  36  70 E13       29.84R
STANTON        CLOUDY    44  38  79 E13       29.81S
DODGE CENTER   PTSUNNY   43  39  87 E18G24    29.79R
AUSTIN         CLOUDY    43  37  81 E17       29.76R
PRESTON        CLOUDY    41  35  79 E13G20    29.79S
$$
ABBREVIATIONS USED IN REMARKS
   TC - TEMPERATURES IN CELSIUS
  WCI - WIND CHILL INDEX
   HX - HEAT INDEX
  VSB - VISIBILITY
$$



USA.gov is the U.S. government's official web portal to all federal, state and local government web resources and services.